Content
SEND FEEDBACK

Daily
Averages
Monthly
Summary
United Kingdom

LONDON, ENGLAND


Home > Europe > United Kingdom > England
Elevation: 203 feet     Latitude: 51 09N     Longitude: 000 11W

WEATHER
 
SELECT A DAY
Number of Records: 292,742;   Date Range: 7/1/96 - 7/24/14
 
SHARE

PRINT THIS DATA

[ ← Previous Day ]
WEATHER ALMANAC - JANUARY 20, 2013
[ Next Day → ]
[ °C ]   °F
Weather ElementAverageHighLow
Temperature30.4 °F32 °F (12:50 am)30.2 °F (1:20 am)
Dewpoint27.9 °F30.2 °F (3:50 pm)24.8 °F (12:50 am)
Humidity90.8 %100 % (3:50 pm)75 % (12:50 am)
Barometer29.35 in29.42 in (12:50 am)29.27 in (11:20 pm)
Wind Speed8.6 mph13.8 mph (2:20 am)
Wind Gust23 mph (10:50 am)
Weather ElementAverage
Visibility2.4 mi
Wind DirectionSSW (189.8 °)

Weather ElementTotal
Precipitation---
Heating Degree Days33.9 (Base 65)
Averaged from 47 records on January 20, 2013
WEATHER CONDITIONS BREAKOUT
WIND DIRECTION BREAKOUT
WEATHER BY HOUR - JANUARY 20, 2013
[ °C ]   °F
Local TimeTemperatureDewpointHumidityBarometerVisibilityWind DirectionWind SpeedGust SpeedPrecipitationEventsConditions
12:50 AM32.0 °F24.8 °F75 %29.42 in5.6 miNNE (30°)12.7 mphMostly Cloudy
1:20 AM30.2 °F24.8 °F80 %29.42 in5.6 miNNE (20°)12.7 mphMostly Cloudy
1:50 AM30.2 °F24.8 °F80 %29.42 in4.3 miNNE (20°)12.7 mphOvercast
2:20 AM30.2 °F26.6 °F86 %29.42 in3.7 miNNE (20°)13.8 mphOvercast
2:50 AM30.2 °F26.6 °F86 %29.42 in3.7 miNNE (30°)13.8 mphOvercast
3:20 AM30.2 °F26.6 °F86 %29.42 in4.3 miNNE (30°)13.8 mphOvercast
3:50 AM30.2 °F24.8 °F80 %29.42 in5.0 miNNE (30°)11.5 mphOvercast
4:20 AM30.2 °F26.6 °F86 %29.42 in3.7 miNNE (20°)11.5 mphOvercast
4:50 AM30.2 °F26.6 °F86 %29.42 in3.7 miNNE (20°)11.5 mphOvercast
5:20 AM30.2 °F26.6 °F86 %29.39 in3.7 miNNE (20°)11.5 mphOvercast
5:50 AM30.2 °F26.6 °F86 %29.39 in3.1 miNNE (20°)11.5 mphHaze
6:20 AM30.2 °F26.6 °F86 %29.39 in3.1 miNNE (20°)10.4 mphHaze
6:50 AM30.2 °F26.6 °F86 %29.39 in3.1 miNE (40°)11.5 mphHaze
7:20 AM30.2 °F26.6 °F86 %29.39 in3.1 miNNE (20°)9.2 mphHaze
7:50 AM30.2 °F26.6 °F86 %29.39 in3.1 miNNE (20°)10.4 mphHaze
8:20 AM30.2 °F26.6 °F86 %29.39 in1.9 miNorth (10°)10.4 mphSnowLight Snow
8:50 AM30.2 °F26.6 °F86 %29.39 in1.7 miNorth (360°)9.2 mphSnowLight Snow
9:20 AM30.2 °F26.6 °F86 %29.39 in1.5 miNorth (350°)8.1 mphSnowLight Snow
9:50 AM30.2 °F26.6 °F86 %29.39 in1.6 miNorth (360°)9.2 mphSnowLight Snow
10:20 AM30.2 °F26.6 °F86 %29.39 in1.9 miNorth (360°)10.4 mphSnowLight Snow
10:50 AM30.2 °F26.6 °F86 %29.39 in1.1 miVariable8.1 mph23.0 mphSnowLight Snow
11:20 AM30.2 °F28.4 °F93 %29.36 in1.4 miNorth (360°)9.2 mphSnowLight Snow
11:50 AM30.2 °F28.4 °F93 %29.36 in1.5 miNorth (360°)9.2 mphSnowLight Snow
12:20 PM30.2 °F28.4 °F93 %29.33 in1.0 miNorth (10°)9.2 mphSnowLight Snow
12:50 PM30.2 °F28.4 °F93 %29.33 in1.6 miNorth (360°)9.2 mphSnowLight Snow
1:20 PM30.2 °F28.4 °F93 %29.33 in1.2 miNorth (350°)6.9 mph19.6 mphSnowLight Snow
1:50 PM30.2 °F28.4 °F93 %29.33 in0.9 miNorth (350°)6.9 mphSnowLight Snow
2:20 PM30.2 °F28.4 °F93 %29.33 in1.0 miNorth (350°)8.1 mphSnowLight Snow
2:50 PM32.0 °F28.4 °F87 %29.33 in1.1 miVariable6.9 mph19.6 mphSnowLight Snow
3:20 PM30.2 °F28.4 °F93 %29.33 in1.1 miNNW (330°)5.8 mphSnowLight Snow
3:50 PM30.2 °F30.2 °F100 %29.33 in1.1 miNNW (330°)6.9 mphSnowLight Snow
4:20 PM30.2 °F30.2 °F100 %29.33 in0.9 miNW (310°)5.8 mphSnowLight Snow
4:50 PM30.2 °F30.2 °F100 %29.30 in0.9 miVariable5.8 mphSnowLight Snow
5:20 PM30.2 °F30.2 °F100 %29.30 in0.9 miWNW (300°)5.8 mphSnowLight Snow
5:50 PM30.2 °F30.2 °F100 %29.30 in1.6 miWNW (300°)5.8 mphSnowLight Snow
6:20 PM30.2 °F30.2 °F100 %29.30 inNW (310°)6.9 mph18.4 mphSnowLight Snow
6:50 PM30.2 °F30.2 °F100 %29.30 in1.5 miNW (310°)6.9 mphSnowLight Snow
7:20 PM30.2 °F30.2 °F100 %29.30 in1.9 miNW (310°)5.8 mphSnowLight Snow
7:50 PM30.2 °F30.2 °F100 %29.30 in2.2 miNW (310°)5.8 mphSnowLight Snow
8:20 PM30.2 °F30.2 °F100 %29.30 in2.2 miWNW (290°)4.6 mphSnowLight Snow
8:50 PM32.0 °F30.2 °F93 %29.30 in2.2 miWest (280°)5.8 mphSnowLight Snow Grains
9:20 PM30.2 °F30.2 °F100 %29.30 in2.2 miWNW (300°)5.8 mphSnowSnow Grains
9:50 PM32.0 °F30.2 °F93 %29.30 in3.1 miWNW (300°)6.9 mphSnowLight Snow
10:20 PM30.2 °F28.4 °F93 %29.30 in3.1 miWest (280°)5.8 mphSnowLight Snow
10:50 PM30.2 °F28.4 °F93 %29.30 in2.8 miWSW (250°)5.8 mphHaze
11:20 PM30.2 °F28.4 °F93 %29.27 in2.2 miWSW (240°)3.5 mphMostly Cloudy
11:50 PM30.2 °F28.4 °F93 %29.27 inSW (230°)4.6 mphHaze
Hourly data recorded from EGKK, located miles away from London, England







STORIES FROM OUR PARTNERS